sat.trackr.live / text

‹ back to catalog

STARLINK-37161

NORAD 68565 · 2026-070Z

PAYLOAD ACTIVE UNKNOWN

§ Identity

Operator
Country
US
Launch date
2026-04-02
Launch site
AFETR
Launch vehicle
Mass (kg)
RCS (m²)

Purposes: comms

External: N2YO · Heavens-Above · Gunter

§ Orbital elements

Epoch: 2026-05-25T00:45:46.603296Z

Period
93.85 min
Inclination
53.1587°
Eccentricity
0.0001134
Mean motion
15.34401026 rev/d
Perigee alt
461.9 km
Apogee alt
463.5 km
Semi-major
6,840.8 km
B*
8.6873e-4
RAAN
7.2093°
Arg perigee
84.6978°
Mean anomaly
275.4154°
Rev number
825

§ Raw data

STARLINK-371611 68565U 26070Z   26145.03178939  .00029090  00000+0  86873-3 0  99972 68565  53.1587   7.2093 0001134  84.6978 275.4154 15.34401026  8252

JSON: /api/v1/satellites/68565 · /tle

For live sub-satellite position, see the globe view (requires WebGL).

§ Visibility from observer

Set your observer location to see the next 7 days of passes ≥ 10°. The values pass through the URL so the page stays shareable.

No JS? Fill the form by hand. The geolocation button needs JavaScript.